Regional Weather Roundup
Issued by NWS

Home | Current Version | Previous Version | Graphics & Text | Print | Product List | Glossary On
Versions: 1 2 3 4 5 6 7 8 9 10 11 12 13 14 15 16 17 18 19 20 21 22 23 24 25 26 27 28 29 30 31 32 33 34 35 36 37 38 39 40 41 42 43 44 45 46 47 48 49
000
ASUS45 KBOU 310207
RWRCO

WEATHER ROUNDUP FOR COLORADO
NATIONAL WEATHER SERVICE DENVER/BOULDER CO
700 PM MST FRI JAN 30 2015

NOTE: "FAIR" INDICATES FEW OR NO CLOUDS BELOW 12000 FEET WITH NO
SIGNIFICANT WEATHER AND/OR OBSTRUCTIONS TO VISIBILITY.

COZ001>005-013-030-031-310300-
...NORTHWEST COLORADO...

CITY           SKY/WX    TMP DP  RH WIND       PRES   REMARKS
CRAIG          CLOUDY    35  31  85 CALM      30.01F
HAYDEN         CLOUDY    36  28  75 CALM      30.01F
MEEKER         LGT RAIN  35  33  92 CALM      29.99F FOG
MOUNT WERNER   NOT AVBL
STEAMBOAT SPGS CLOUDY    34  29  80 CALM      30.00F
WALDEN         CLOUDY    34  28  80 NE10      30.04F WCI  26
$$

COZ006>008-011-310300-
...WEST CENTRAL VALLEYS...

CITY           SKY/WX    TMP DP  RH WIND       PRES   REMARKS
GRAND JUNCTION CLOUDY    40  37  89 CALM      29.97S
MONTROSE       CLOUDY    40  36  86 N3        30.00S
EAGLE          LGT SNOW  36  28  75 CALM      30.04S FOG
RIFLE          LGT RAIN  38  36  92 SE5       29.99S
DELTA          RAIN      42  41  96 CALM      29.99S
NUCLA          LGT RAIN  36  36 100 CALM      30.02F
$$

COZ017>023-064>068-310300-
...SOUTHWEST COLORADO...

CITY           SKY/WX    TMP DP  RH WIND       PRES   REMARKS
DURANGO        LGT SNOW  32  32 100 CALM      30.03S FOG
CORTEZ         CLOUDY    37  34  89 VRB5      29.99F
PAGOSA SPRINGS LGT SNOW  33  33 100 CALM      30.05S
TELLURIDE      CLOUDY    32  32 100 CALM      30.00F FOG
WOLF CREEK PAS SNOW      23  23 100 SW14      30.11F VSB 1/4 WCI  11
$$

COZ009-010-012-014-032>034-037-058>063-310300-
...CENTRAL COLORADO...

CITY           SKY/WX    TMP DP  RH WIND       PRES   REMARKS
ASPEN          CLOUDY    32  30  92 W3        30.00S
BUENA VISTA    LGT SNOW  31  30  96 CALM      30.09S
COPPER MTN     LGT SNOW  27  21  80 SE10      30.07F WCI  17
BERTHOUD PASS  HAZE      14  10  85 SE30G36   30.11S VSB<1/4 WCI  -7
COTTONWOOD PAS LGT SNOW  32  28  86 CALM      30.10R
GUNNISON       CLOUDY    34  28  80 N8        30.04F WCI  27
KREMMLING      CLOUDY    32  23  69 CALM      30.06S
LEADVILLE      SNOW      25  25 100 S10       30.05S VSB 1/4 WCI  15
MONARCH PASS   CLOUDY    21  19  93 MISG      30.20S
SALIDA         CLOUDY    33  32  97 CALM      30.15F
SUNLIGHT       LGT SNOW  30  28  93 NE3         N/A
WILKERSON PASS HVY SNOW  21  19  93 E8        30.13S VSB 1/4 WCI  12
$$

COZ069>075-310300-
...SAN LUIS VALLEY/SANGRE DE CRISTO MOUNTAINS...

CITY           SKY/WX    TMP DP  RH WIND       PRES   REMARKS
ALAMOSA        CLOUDY    30  28  92 CALM      30.07F
LA VETA PASS   LGT SNOW  27  27 100 S7        30.09F WCI  19
SAGUACHE       CLOUDY    30  28  93 E3        30.09F
$$

COZ035-036-038>040-310300-
...NORTHERN COLORADO FRONT RANGE...

CITY           SKY/WX    TMP DP  RH WIND       PRES   REMARKS
DENVER INTL AP CLOUDY    41  27  57 NW8       30.08S
DMNS CITY PARK   N/A     43  25  48 N2        30.08S
AURORA         CLOUDY    39  26  59 NW5       30.09S
FRONT RANGE AP NOT AVBL
ERIE MUNI ARPT CLOUDY    40  27  59 CALM      30.09S
BOULDER MUN AP CLOUDY    43  27  52 CALM      30.09S
CENTENNIAL     CLOUDY    41  26  55 N8        30.09R
BROOMFIELD     CLOUDY    43  25  49 N6        30.09F
FORT COLLINS   CLOUDY    41  28  60 N5        30.11S
LONGMONT       CLOUDY    44  28  54 NW5       30.11S
$$

COZ041-046-047-076>085-087-088-310300-
...PIKES PEAK/PALMER DIVIDE AND SOUTHERN FOOTHILLS...

CITY           SKY/WX    TMP DP  RH WIND       PRES   REMARKS
COLO. SPRINGS  CLOUDY    39  26  59 NE3       30.08S
A. F. ACADEMY  CLOUDY    40  24  53 NW14      30.08R
ELLICOTT       CLOUDY   N/A N/A N/A N5        30.06F
FALCON         CLOUDY    38  24  55 N8        30.08F
FORT CARSON    CLOUDY    37  28  69 CALM      30.06S
LIMON          CLOUDY    34  31  88 SE5       30.07R WCI  30
MONUMENT HILL  CLOUDY    36  27  69 NW13      30.08S
TRINIDAD       CLOUDY    35  30  82 W17       30.07R WCI  25
$$

COZ042>045-048>051-090-091-310300-
...NORTHEAST COLORADO...

CITY           SKY/WX    TMP DP  RH WIND       PRES   REMARKS
GREELEY ARPT   CLOUDY    37  27  65 N7        30.08S
AKRON          CLOUDY    37  29  72 N8        30.04F
BURLINGTON     CLOUDY    34  31  88 S18       30.11F WCI  23
WRAY           CLOUDY    39  33  80 S8        30.10F
STERLING       CLOUDY    37  32  81 N7        30.06F
HOLYOKE        NOT AVBL
FORT MORGAN    CLOUDY    38  28  65 N8        30.06F
$$

COZ086-089-092>099-310300-
...SOUTHEAST COLORADO...

CITY           SKY/WX    TMP DP  RH WIND       PRES   REMARKS
PUEBLO         CLOUDY    40  35  83 N3        30.07R
LA JUNTA       CLOUDY    39  37  92 E3        30.07S
LAMAR          MIX PCPN  37  35  92 S8        30.09F
SPRINGFIELD      N/A     33  32  96 S23       30.10F WCI  21
$$



USA.gov is the U.S. government's official web portal to all federal, state and local government web resources and services.